Regional Weather Roundup
Issued by NWS

Home | Current Version | Previous Version | Text Only | Print | Product List | Glossary Off
Versions: 1 2 3 4 5 6 7 8 9 10 11 12 13 14 15 16 17 18 19 20 21 22 23 24 25 26 27 28 29 30 31 32 33 34 35 36 37 38 39 40 41 42 43 44 45 46 47 48 49 50

969
ASUS43 KMKX 231459
RWRWI

WISCONSIN REGIONAL WEATHER ROUNDUP
NATIONAL WEATHER SERVICE MILWAUKEE/SULLIVAN WI
900 AM CST TUE JAN 23 2018

NOTE: "FAIR" INDICATES FEW OR NO CLOUDS BELOW 12,000 FEET WITH NO
SIGNIFICANT WEATHER AND/OR OBSTRUCTIONS TO VISIBILITY.

WIZ001-002-006>008-014>016-023>028-231600-
NORTHWEST WISCONSIN

CITY           SKY/WX    TMP DP  RH WIND       PRES   REMARKS
SUPERIOR ARPT  CLOUDY     9   2  73 NW5       30.04R WCI   0
ASHLAND        CLOUDY    18  13  80 N8        29.98R HAZE    WCI   8
HAYWARD        FLURRIES  18  13  80 N7        29.94R WCI   9
SIREN          CLOUDY    14   8  76 N9        30.00R WCI   2
CUMBERLAND     CLOUDY    14  10  85 NW14      29.93R WCI  -1
RICE LAKE      CLOUDY    17  13  84 NW13G20   29.95R WCI   4
CHETEK         CLOUDY    18  15  87 N6        29.92R WCI  10
LADYSMITH      CLOUDY    19  17  89 N12G20    29.90R WCI   7
EAU CLAIRE     NOT AVBL
MENOMONIE      CLOUDY    20  15  79 NW13G22   29.94R WCI   7
NEW RICHMOND   CLOUDY    16  10  78 N13       29.97R WCI   2
OSCEOLA        CLOUDY    16  10  77 NW10      30.02R WCI   4
$$

WIZ003>005-009-010-017-018-231600-
NORTH CENTRAL WISCONSIN

CITY           SKY/WX    TMP DP  RH WIND       PRES   REMARKS
MANITOWISH WTR LGT SNOW  16  16 100 N10G17    29.84R WCI   3
ARBOR VITAE    LGT SNOW  19  17  91 N17G25    29.81R WCI   4
WOODRUFF       LGT SNOW  19  17  91 N17G25    29.81R WCI   4
RHINELANDER    CLOUDY    18  15  88 N15G23    29.80R WCI   4
EAGLE RIVER    LGT SNOW  18  17  95 N14G21    29.79R WCI   4
LAND O LAKES   CLOUDY    18  16  93 N14G20    29.81R FOG     WCI   4
PHILLIPS       CLOUDY    17  15  93 N13       29.84R WCI   3
TOMAHAWK       CLOUDY    17  14  88 N12G18    29.82R WCI   5
MEDFORD        CLOUDY    18  15  88 N13       29.81R WCI   5
MERRILL        CLOUDY    19  16  87 N10G25    29.81R WCI   8
$$

WIZ029-030-035-036-043>047-231600-
CENTRAL WISCONSIN

CITY           SKY/WX    TMP DP  RH WIND       PRES   REMARKS
WAUSAU         CLOUDY    20  16  84 N13G28    29.78R WCI   7
MOSINEE        CLOUDY    19  18  93 N17G25    29.80R WCI   4
MARSHFIELD     CLOUDY    21  18  88 N15G26    29.81R WCI   8
STEVENS POINT  CLOUDY    20  18  91 NW15      29.78R WCI   7
WAUPACA        CLOUDY    27  21  77 NW7       29.76R HAZE    WCI  20
WAUTOMA        FLURRIES  24  19  81 MISG        N/A
WISC RAPIDS    NOT AVBL
CAMP DOUGLAS   FLURRIES  25  21  86 NW18      29.82R WCI  11
$$

WIZ011>013-019>022-031-037>040-048>050-231600-
NORTHEAST WISCONSIN

CITY           SKY/WX    TMP DP  RH WIND       PRES   REMARKS
ANTIGO         CLOUDY    19  17  90 N18G24    29.74R FOG     WCI   4
SHAWANO        CLOUDY    27  21  78 N10       29.75R WCI  17
OCONTO         CLOUDY    24  20  84 NW12G17   29.72R WCI  13
STURGEON BAY   FLURRIES  25  22  88 N18       29.70R WCI  11
GREEN BAY      CLOUDY    26  20  77 N13       29.74R WCI  15
MANITOWOC      LGT SNOW  26  22  84 N15G24    29.72R FOG     WCI  14
APPLETON       CLOUDY    25  18  74 NW10      29.72R WCI  15
CLINTONVILLE   CLOUDY    27  19  74 N9G17     29.75R WCI  17
OSHKOSH        FLURRIES  26  21  81 NW12      29.75R WCI  16
$$

WIZ032>034-041-042-053>061-231600-
SOUTHWEST WISCONSIN

CITY           SKY/WX    TMP DP  RH WIND       PRES   REMARKS
LA CROSSE      CLOUDY    25  20  81 N17       29.90R WCI  12
SPARTA         CLOUDY    23  21  91 NW9G16    29.88R WCI  13
VIROQUA        CLOUDY    24  24  98 N12       29.83R WCI  13
BOSCOBEL       CLOUDY    29  22  75 NW9G20    29.87R WCI  20
PRAIRIE DU CHI CLOUDY    28  22  79 W14       29.87R WCI  17
PLATTEVILLE    CLOUDY    28  25  89 NW13G23   29.82R WCI  17
$$

WIZ056-057-062-063-064-067-068-231600-
SOUTH CENTRAL WISCONSIN

CITY           SKY/WX    TMP DP  RH WIND       PRES   REMARKS
REEDSBURG      LGT SNOW  25  22  91 NW10      29.80R WCI  14
BARABOO/DELLS  LGT SNOW  25  21  87 NW8G17    29.79R WCI  16
LONE ROCK      CLOUDY    27  22  81 NW9       29.83R WCI  18
MINERAL POINT  CLOUDY    28  27  93 NW15G22   29.80R WCI  17
MADISON        FLURRIES  26  21  81 NW10G22   29.79R WCI  16
MIDDLETON      CLOUDY    28  23  82 NW13      29.79R WCI  18
WATERTOWN      CLOUDY    26  24  93 NW10G21   29.74R FOG     WCI  16
MONROE         CLOUDY    28  23  80 N10G20    29.78R WCI  19
JANESVILLE     CLOUDY    28  28 100 NW17G23   29.77R WCI  16
$$

WIZ051-052-058>065-066-070>072-231600-
SOUTHEAST WISCONSIN

CITY           SKY/WX    TMP DP  RH WIND       PRES   REMARKS
MILWAUKEE      CLOUDY    30  24  78 NW17G24   29.71R WCI  18
WAUKESHA       CLOUDY    25  21  86 NW15      29.73R WCI  12
MILWAUKEE/TIMM CLOUDY    28  21  74 NW14G21   29.73R WCI  17
RACINE         CLOUDY    29  25  85 NW13      29.73R WCI  19
BURLINGTON     CLOUDY    28  24  84 NW13      29.72R WCI  17
KENOSHA        CLOUDY    30  25  81 NW15G24   29.72R WCI  19
FOND DU LAC    FLURRIES  27  20  75 NW18      29.75R WCI  14
SHEBOYGAN      LGT SNOW  26  24  92 NW13      29.71R FOG     WCI  15
WEST BEND      CLOUDY    27  25  93 NW13G18   29.71R FOG     WCI  16
JUNEAU         CLOUDY    25  21  84 NW13      29.75R WCI  14
$$

LSZ147-162-231600-
LAKE SUPERIOR

STATION/POSITION TIME  TEMP    WIND        PRES    WAVE
                       AIR SEA DIR/SP/G            HT/PER
                 (UTC) (F)     (DEG/KT/KT) (MB)    (FT/S)
DEVILS ISLAND    1400   19      30/ 17/ 19 1016.2R
SAXON HARBOR     1440   21      20/ 12/ 17 1014.2R
$$

LMZ867-665-643>646-231600-
LAKE MICHIGAN

STATION/POSITION TIME  TEMP    WIND        PRES    WAVE
                       AIR SEA DIR/SP/G            HT/PER
                 (UTC) (F)     (DEG/KT/KT) (MB)    (FT/S)
NORTHPORT PIER   1440   24     340/  8/ 13 1005.1R
KEWAUNEE LAKESHO 1430   26     350/ 10/ 16 1004.8R
SHEBOYGAN LAKESH 1400   27     330/ 19/ 26 1005.5R
PORT WASHINGTON  1430   28     330/ 10/ 16 1007.5R
MILWAUKEE LAKESH 1430   28     330/ 10/ 14   N/A
KENOSHA   LAKESH 1400   29     320/ 10/ 18 1005.4
$$

TC  - TEMPERATURE IN CELSIUS
VSB - VISIBILITY IN STATUTE MILES
WCI - WIND CHILL INDEX
HX  - HEAT INDEX





USA.gov is the U.S. government's official web portal to all federal, state and local government web resources and services.